Temp
96 96 98 98 98 99 98 98 98 97 90 88 90 88 87 85 86 87 88 88 88 89 88 85 86 86 89 88 87 86 85 85 81
93 95 97 97 99 99 98 99 97 97 91 91 91 92 88 86 86 86 87 87 88 90 90 92 87 90 89 89 87 85 85 82 81
95 96 98 98 100 100 101 102 102 100 97 95 94 94 90 89 87 86 87 89 89 90 91 90 90 90 89 85 76 80 81 80 80
97 97 98 99 99 100 102 102 102 102 100 96 94 94 90 88 88 88 88 88 90 89 90 90 91 84 82 82 78 81 81 80 81
98 100 99 101 99 97 96 100 94 90 81 77 95 93 89 89 90 89 91 89 91 90 88 90 90 87 80 78 81 83 81 80 81
93 96 98 94 80 72 80 94 95 87 82 78 83 94 94 94 92 92 92 92 92 90 89 90 86 84 81 79 81 82 82 80 79
92 94 91 86 82 77 83 91 92 93 95 95 96 96 95 91 92 91 94 93 91 93 86 84 79 80 82 82 82 80 80 79 78
90 90 91 91 89 86 84 86 91 92 93 93 94 93 92 90 91 91 90 86 88 85 84 82 82 81 83 82 80 75 73 76 78
89 88 90 90 90 90 89 91 91 91 92 92 93 92 91 88 88 86 87 84 82 81 79 82 81 81 79 79 78 67 68 72 77
90 91 90 89 89 89 92 93 91 89 91 91 91 88 88 86 85 85 82 82 82 82 81 82 80 78 78 76 76 65 65 70 78
91 93 92 93 95 94 94 96 95 86 85 83 87 86 84 85 85 82 82 82 81 81 82 80 79 80 79 77 73 64 65 67 78
95 95 96 97 98 97 93 94 91 90 89 85 83 79 79 79 79 79 80 80 81 81 80 79 79 80 79 77 75 62 64 68 80
97 99 99 98 98 96 94 91 92 87 85 82 78 78 79 80 81 81 81 81 80 81 81 79 80 78 78 73 76 61 62 65 78
99 99 99 98 95 93 92 93 93 86 84 81 81 81 79 81 82 81 81 81 81 81 80 79 78 78 78 77 73 72 63 63 79
97 97 95 96 93 92 93 93 90 85 82 83 83 82 82 81 82 84 83 81 81 80 79 78 78 77 78 79 77 63 62 64 64
96 94 93 96 94 91 91 89 88 82 82 83 82 82 81 82 83 82 82 81 80 81 79 79 78 79 80 79 79 77 66 65 65
94 94 93 94 91 89 85 85 84 84 83 84 82 81 81 83 82 81 83 84 83 81 82 79 82 82 81 82 81 80 79 76 76
93 92 94 91 87 84 84 83 82 83 83 84 82 82 83 83 85 82 82 83 77 82 73 75 81 81 82 81 79 73 60 65 76
93 91 90 86 84 83 83 83 83 82 84 84 83 83 85 86 85 86 86 84 79 56 56 52 51 51 68 70 57 51 50 48 49
84 92 87 84 83 83 83 82 82 83 84 85 84 84 84 88 83 88 85 85 83 81 69 56 53 52 50 52 59 50 49 50 49
MSLP
1000.62 1001.21 1001.82 1002.45 1003.21 1003.87 1004.62 1005.40 1006.21 1007.05 1008.29 1009.23 1009.93 1010.47 1010.96 1011.40 1011.59 1011.70 1011.70 1011.59 1011.63 1011.52 1011.47 1011.83 1012.02 1012.37 1012.34 1012.59 1012.86 1013.03 1013.31 1013.22 1013.37
1000.04 1000.68 1001.13 1001.95 1002.75 1003.50 1004.23 1005.03 1005.81 1006.72 1007.79 1008.63 1009.27 1009.83 1010.39 1010.78 1011.14 1011.24 1011.24 1011.26 1011.43 1011.44 1011.40 1011.60 1011.90 1012.10 1012.32 1012.80 1013.27 1013.47 1013.33 1013.04 1013.14
999.39 1000.18 1000.56 1001.22 1001.99 1002.77 1003.60 1004.35 1005.18 1006.19 1007.12 1007.85 1008.42 1008.80 1009.68 1010.20 1010.61 1010.95 1011.09 1011.09 1011.10 1011.14 1011.28 1011.44 1011.70 1012.14 1012.45 1013.08 1013.61 1013.54 1013.50 1013.43 1013.11
998.57 999.43 1000.24 1000.78 1001.58 1002.31 1003.10 1003.63 1004.32 1005.06 1006.02 1006.76 1007.58 1008.17 1008.84 1009.45 1009.97 1010.47 1010.87 1011.08 1010.99 1011.23 1011.55 1011.69 1011.83 1012.04 1012.35 1012.92 1013.25 1013.30 1013.65 1013.33 1013.07
998.60 998.83 999.65 1000.58 1001.65 1002.81 1003.12 1003.64 1003.99 1005.09 1006.41 1007.27 1006.74 1007.43 1008.51 1008.94 1009.42 1009.87 1010.29 1010.67 1010.80 1011.08 1011.37 1011.65 1011.90 1012.17 1012.59 1012.22 1013.39 1013.40 1013.50 1013.43 1013.25
999.56 999.58 999.52 1000.87 1002.52 1004.79 1005.47 1004.08 1004.42 1006.37 1006.55 1007.38 1006.91 1007.21 1008.16 1008.51 1008.88 1009.21 1009.57 1009.82 1010.23 1010.49 1010.99 1011.47 1011.95 1012.57 1012.83 1013.00 1013.18 1013.28 1013.26 1013.35 1013.44
1000.05 1000.17 1000.74 1002.08 1003.54 1004.82 1005.22 1004.30 1004.72 1005.12 1005.94 1006.70 1007.11 1007.52 1007.71 1007.97 1008.26 1008.76 1009.12 1009.17 1009.59 1009.81 1010.76 1011.49 1012.02 1012.67 1013.09 1013.25 1013.27 1013.42 1013.62 1013.46 1013.52
1000.53 1000.96 1001.52 1002.46 1003.70 1004.48 1004.50 1004.40 1004.92 1005.39 1006.02 1006.67 1007.15 1007.32 1007.60 1007.83 1008.10 1008.50 1009.07 1009.65 1009.97 1010.59 1011.46 1011.92 1012.37 1012.26 1012.97 1013.37 1013.72 1014.15 1014.29 1013.85 1013.42
1000.58 1001.44 1001.97 1002.65 1003.43 1004.10 1004.61 1004.80 1005.27 1005.77 1006.20 1006.65 1007.14 1007.41 1007.79 1008.05 1008.44 1009.06 1009.47 1010.32 1011.07 1011.58 1011.99 1012.41 1012.61 1012.31 1013.27 1013.73 1014.29 1014.73 1014.77 1014.29 1013.81
1000.33 1001.06 1001.74 1002.66 1003.39 1003.88 1004.12 1004.63 1005.27 1005.74 1006.29 1006.95 1007.39 1007.81 1008.25 1008.60 1009.09 1009.69 1010.42 1011.02 1011.52 1011.87 1012.17 1012.32 1012.51 1013.04 1013.62 1014.37 1014.81 1015.15 1014.81 1014.49 1013.90
1000.09 1000.69 1001.43 1001.99 1002.60 1003.34 1003.77 1004.31 1005.03 1006.01 1006.63 1007.33 1007.86 1008.40 1008.59 1009.01 1009.53 1010.06 1010.73 1011.29 1011.74 1012.01 1012.13 1012.38 1012.94 1013.41 1013.95 1014.63 1015.11 1015.06 1014.81 1014.46 1014.00
999.72 1000.42 1001.18 1001.66 1002.15 1003.01 1003.87 1004.56 1005.62 1006.38 1006.94 1007.85 1008.60 1008.92 1009.32 1009.52 1009.88 1010.41 1011.00 1011.51 1011.81 1012.14 1012.40 1012.86 1013.40 1013.74 1014.05 1014.51 1014.79 1014.73 1014.71 1014.37 1013.86
999.29 1000.18 1000.89 1001.35 1002.22 1003.29 1004.39 1005.18 1006.01 1006.99 1007.75 1008.54 1009.07 1009.47 1009.81 1010.09 1010.31 1010.72 1011.27 1011.69 1012.03 1012.36 1012.75 1013.28 1013.81 1014.19 1014.34 1014.40 1014.65 1014.85 1014.76 1014.41 1013.75
998.72 999.84 1000.63 1001.65 1002.78 1003.77 1004.78 1005.44 1006.06 1007.00 1008.00 1008.80 1009.34 1009.85 1010.19 1010.37 1010.67 1011.10 1011.59 1011.97 1012.34 1012.74 1013.03 1013.51 1013.85 1014.10 1014.30 1014.56 1014.81 1014.88 1014.54 1014.26 1014.03
998.11 999.59 1000.82 1002.07 1003.12 1004.04 1004.87 1005.45 1006.35 1007.27 1008.18 1008.97 1009.46 1009.89 1010.37 1010.73 1011.01 1011.25 1011.78 1012.17 1012.58 1012.96 1013.29 1013.54 1013.78 1014.02 1014.16 1014.49 1014.73 1014.72 1014.71 1014.67 1014.60
998.21 999.73 1001.13 1002.37 1003.30 1004.32 1005.02 1005.97 1006.85 1007.86 1008.55 1009.06 1009.60 1010.06 1010.59 1010.95 1011.05 1011.52 1011.94 1012.31 1012.60 1012.81 1013.14 1013.34 1013.46 1013.53 1013.65 1014.00 1014.33 1014.62 1014.77 1014.83 1014.74
998.60 1000.05 1001.54 1002.42 1003.56 1004.55 1005.55 1006.54 1007.37 1008.26 1008.86 1009.21 1009.73 1010.15 1010.67 1010.99 1011.38 1011.67 1011.78 1012.01 1012.09 1012.40 1012.67 1012.85 1012.88 1013.00 1013.19 1013.56 1013.85 1014.21 1014.64 1014.92 1014.95
999.01 1000.44 1001.63 1002.63 1003.87 1004.96 1005.94 1006.86 1007.66 1008.41 1008.91 1009.30 1009.78 1010.22 1010.61 1011.01 1011.29 1011.60 1011.92 1012.02 1012.36 1012.38 1012.93 1012.84 1013.07 1013.22 1013.25 1013.64 1014.11 1014.83 1014.94 1015.03 1015.06
999.07 1000.58 1001.72 1002.99 1004.27 1005.26 1006.18 1006.98 1007.67 1008.37 1008.81 1009.23 1009.76 1010.11 1010.31 1010.51 1010.93 1011.17 1011.29 1011.76 1012.45 1012.57 1012.79 1013.15 1013.28 1013.55 1013.55 1014.49 1014.52 1014.96 1015.14 1015.21 1015.09
999.38 1000.81 1002.12 1003.30 1004.43 1005.49 1006.29 1007.02 1007.68 1008.25 1008.69 1009.14 1009.61 1009.69 1009.78 1009.88 1010.06 1010.16 1010.60 1011.07 1011.69 1012.40 1013.24 1013.36 1013.54 1013.74 1014.00 1014.41 1014.83 1015.09 1015.15 1015.08 1014.90
Wind_Speed
18 17 16 17 15 11 9 13 13 12 15 11 11 10 10 9 8 5 5 6 6 5 4 7 6 6 4 5 6 6 4 4 5
16 16 17 16 16 15 15 13 12 12 15 13 12 13 10 9 10 9 8 7 6 4 4 2 6 4 4 2 4 5 5 5 6
19 16 16 17 17 17 15 16 15 13 16 14 14 13 12 10 10 9 8 5 4 5 3 4 4 3 2 4 9 12 7 6 4
17 18 16 15 14 14 15 15 16 18 17 16 13 12 14 11 11 10 8 7 5 4 4 4 2 1 3 3 5 5 3 3 3
3 7 18 15 15 2 12 13 10 8 16 13 6 9 12 11 11 10 11 9 8 6 6 4 2 2 3 4 4 3 3 4 5
3 4 8 10 15 17 21 3 8 11 15 15 18 7 8 10 10 10 11 11 10 9 6 4 5 5 6 4 4 3 3 4 6
5 5 8 17 18 22 19 3 5 6 8 7 4 7 8 8 9 9 9 8 8 6 6 5 8 6 3 4 3 5 5 5 6
8 8 6 10 12 8 4 5 5 5 3 3 8 5 4 6 6 7 6 7 6 9 9 8 6 6 4 4 6 6 7 7 5
11 11 11 8 8 9 7 7 6 6 4 3 4 0 4 6 7 8 7 8 10 8 6 5 3 8 7 7 5 8 8 6 4
13 12 14 14 12 12 10 8 8 8 6 5 2 5 5 6 7 7 8 8 9 6 6 6 8 7 9 6 4 5 7 7 3
13 11 13 13 14 11 11 9 8 7 7 6 2 2 5 7 7 9 9 8 8 7 5 8 8 6 7 5 3 4 6 9 2
14 13 13 12 13 11 7 8 8 6 7 7 6 7 7 6 8 8 9 9 8 7 8 8 6 4 5 5 3 8 9 9 1
17 17 13 10 13 13 10 9 9 10 9 9 8 8 6 7 8 9 9 9 8 7 6 6 6 5 4 5 4 6 6 6 5
18 15 15 14 13 11 11 10 11 12 10 9 9 9 7 9 9 9 9 8 6 6 6 6 5 5 4 5 3 3 8 10 5
20 16 16 15 11 11 11 10 9 12 11 10 10 10 9 9 8 8 8 7 6 6 6 6 5 5 5 5 4 0 2 4 3
18 18 14 14 14 12 11 11 11 12 10 10 10 10 9 8 7 9 8 7 7 6 6 6 6 5 6 7 6 4 5 2 5
17 16 13 13 14 13 12 12 13 11 10 10 10 11 8 7 8 8 7 7 7 4 5 6 6 4 4 4 5 5 4 3 3
16 15 13 14 13 13 13 13 13 12 10 10 10 9 8 8 6 6 6 1 3 5 4 3 3 4 3 2 5 3 4 3 2
16 15 13 14 14 13 13 12 12 12 10 10 10 9 8 8 7 7 6 6 4 11 10 6 9 6 6 4 8 8 5 2 5
16 14 15 15 15 14 12 12 12 11 11 10 10 8 8 7 7 9 7 6 5 5 3 5 6 6 8 8 9 6 4 4 7
Wind_Direction
180 189 185 181 184 191 169 168 168 161 154 162 176 186 191 193 206 217 221 212 251 300 345 169 164 197 189 193 194 207 243 239 227
176 188 188 180 180 189 172 186 167 181 155 170 178 190 191 190 200 214 214 223 200 253 267 204 180 172 192 229 307 279 278 260 277
173 185 198 175 186 184 178 186 175 186 161 175 185 185 185 197 199 209 237 263 211 246 298 224 136 180 240 38 42 292 295 296 20
170 177 191 185 183 182 180 182 179 187 180 181 179 193 178 187 194 201 216 238 229 230 290 296 283 266 348 67 198 322 325 2 323
80 186 179 196 168 65 173 186 184 94 68 342 184 175 172 185 181 198 199 213 216 204 210 254 31 346 349 52 29 331 10 337 336
107 282 190 114 82 85 305 88 111 140 128 156 245 138 177 184 187 199 218 196 212 192 173 167 62 64 63 36 7 330 304 355 313
118 105 56 109 127 150 221 87 83 93 136 162 172 199 190 197 185 212 210 224 187 157 131 100 95 85 29 26 22 33 353 346 319
134 126 154 127 130 143 177 124 128 102 155 201 251 167 246 197 172 192 88 68 81 97 87 85 95 94 86 49 63 33 347 329 315
148 151 157 157 165 165 177 188 150 164 205 140 277 152 294 100 77 82 109 92 80 95 110 110 110 79 86 58 54 10 346 342 333
162 171 152 159 169 181 192 175 187 179 161 142 230 166 196 126 122 122 92 97 114 119 117 139 92 96 87 71 66 2 349 333 325
167 169 156 161 173 175 180 168 162 102 97 97 74 101 114 131 133 121 122 133 131 140 126 95 96 92 106 119 93 6 342 327 262
167 164 162 173 162 146 121 143 101 125 118 103 125 99 89 101 105 114 124 130 123 107 96 93 95 103 113 105 44 9 11 347 216
166 164 165 166 132 129 129 122 152 113 120 111 102 108 122 120 120 119 118 110 104 102 113 126 119 122 123 101 72 15 360 1 306
163 165 161 127 127 145 138 165 158 138 136 128 124 123 116 119 119 114 114 111 118 107 109 102 118 117 102 80 32 32 2 11 37
159 155 131 138 148 134 158 145 128 130 129 134 133 131 128 127 138 132 123 126 110 119 133 138 147 162 159 132 143 133 26 30 53
147 135 141 158 143 150 128 127 128 120 125 130 135 131 129 150 124 118 136 147 163 163 187 166 182 200 179 154 164 175 189 286 327
132 142 157 151 145 137 125 119 122 131 141 141 138 134 150 133 133 153 176 181 190 217 193 191 186 177 155 137 167 152 165 204 226
145 144 169 136 135 130 129 131 134 145 152 154 144 145 147 155 158 187 194 137 14 118 53 42 36 35 49 96 98 83 89 61 13
144 152 141 133 134 136 140 140 142 145 158 151 154 166 172 183 158 194 207 158 145 52 79 81 88 101 69 55 80 129 114 77 306
143 153 138 137 141 143 146 143 147 152 158 162 180 191 192 180 196 180 190 162 165 174 93 89 83 79 84 75 146 157 173 250 305